Lid_Strength_Index
1 1 1 0 0 -1 0 1 3 6 5 3 3 0 -0 -0 0 0 0 2 1 2 2 2 2 2 1 1 1 0 0 -1 -2 -2 -2 -2 -2 -2
0 1 1 0 0 0 1 1 2 3 5 3 2 1 0 -0 -0 0 0 1 2 2 1 2 2 2 2 2 1 -0 -1 -1 -1 -1 -2 -1 -1 -1
0 1 1 0 1 1 0 1 2 2 4 3 1 1 1 1 1 1 -0 0 1 2 2 2 3 3 2 1 1 0 -0 -0 -0 0 0 1 2 1
1 1 1 1 1 1 1 1 1 1 3 4 2 1 2 1 1 1 1 1 0 2 2 3 3 3 2 1 0 1 2 2 3 3 4 3 3 3
1 1 1 1 1 1 1 1 1 1 1 2 3 2 2 1 1 1 1 1 1 2 3 3 3 2 2 2 2 3 4 5 5 5 4 4 4 3
1 1 1 1 1 1 1 1 1 2 2 2 2 3 3 2 2 3 3 1 2 1 3 2 2 3 2 2 2 4 5 6 6 6 6 6 6 5
0 0 0 1 2 2 1 1 1 2 2 3 3 3 4 3 3 1 2 2 1 1 0 -1 -1 1 3 4 3 4 6 6 6 6 6 7 7 7
1 0 0 1 4 5 5 4 2 2 2 3 3 4 3 2 1 2 2 2 3 -1 -0 3 2 3 3 3 6 6 6 6 6 6 7 7 8 9
0 1 1 0 0 0 5 5 5 6 4 1 2 2 2 1 1 1 1 1 1 -0 2 3 2 3 3 4 6 6 7 7 7 7 8 8 9 10
0 0 0 0 0 0 0 1 1 1 -0 -0 -0 -0 -0 -1 -0 -0 -0 0 -0 -0 -1 3 2 3 3 4 6 7 7 8 8 8 8 9 9 10
0 -0 0 0 8 6 1 1 1 1 7 9 8 7 7 6 2 -0 1 1 2 1 -1 1 2 3 3 4 5 7 8 8 8 8 8 9 9 9
1 1 5 2 10 7 0 1 1 1 0 -0 -0 2 2 4 5 -1 0 2 2 2 0 2 2 3 4 3 4 4 5 8 8 9 9 9 10 6
1 1 0 10 10 9 7 0 1 1 3 0 0 1 -0 -0 -1 -1 -1 -0 1 1 1 1 3 3 3 4 4 6 5 6 6 6 9 9 9 9
1 1 1 9 10 10 5 11 10 6 1 1 1 1 1 1 1 -0 -0 -0 -1 -1 1 1 4 4 5 6 6 6 6 5 6 6 6 8 8 8
0 4 10 11 11 8 10 11 9 1 0 1 1 1 0 0 0 1 1 2 3 3 3 2 4 4 5 6 8 8 8 6 6 7 7 7 7 7
7 5 7 7 9 6 5 4 -0 -0 0 1 1 0 1 1 1 2 3 5 6 6 5 4 3 5 7 8 8 9 8 8 7 7 7 7 7 6
3 2 1 1 1 1 1 0 0 1 0 0 1 1 1 1 2 2 3 4 5 6 7 6 5 5 6 7 8 9 8 8 8 8 8 8 7 7
2 1 1 1 1 1 1 1 0 3 0 0 0 0 1 2 2 2 2 3 5 6 7 8 8 9 8 8 9 9 8 9 9 8 8 9 8 7
1 1 1 1 1 1 1 1 1 1 -0 0 0 0 1 1 3 3 4 4 6 8 8 8 9 9 10 10 8 12 10 10 10 9 8 9 8 8
1 1 1 1 1 1 1 2 2 2 0 0 0 1 1 3 4 5 6 7 9 10 9 9 10 10 9 9 9 10 14 11 10 10 9 8 7 9
2 2 1 1 1 1 1 1 1 2 2 2 2 2 3 4 4 5 6 11 10 10 10 10 10 14 9 9 10 11 11 13 12 11 11 10 9 7
1 2 2 2 1 1 1 2 2 3 3 3 2 3 3 3 4 6 8 10 10 10 11 10 10 10 11 12 12 12 12 12 12 12 11 11 9 10
1 1 1 2 2 2 2 3 3 2 2 2 3 3 4 4 5 8 9 9 10 10 10 11 11 11 12 13 13 12 13 13 11 10 9 10 10 9